Regional Weather Roundup
Issued by NWS

Home | Current Version | Previous Version | Text Only | Print | Product List | Glossary On
Versions: 1 2 3 4 5 6 7 8 9 10 11 12 13 14 15 16 17 18 19 20 21 22 23 24 25 26 27 28 29 30 31 32 33 34 35 36 37 38 39 40 41 42 43 44 45 46 47 48 49 50
000
ASUS43 KDTX 060510
RWRMI
MICHIGAN HOURLY REGIONAL WEATHER ROUNDUP
NATIONAL WEATHER SERVICE DETROIT/PONTIAC MI
100 AM EDT MON JUL 06 2015

NOTE: "FAIR" INDICATES FEW OR NO CLOUDS BELOW 12,000 FEET WITH NO
SIGNIFICANT WEATHER AND/OR OBSTRUCTION TO VISIBILITY.

MIZ047>049-052>055-059>063-066>070-074>076-081>083-060600-
SOUTHEAST LOWER MICHIGAN

CITY           SKY/WX    TMP DP  RH WIND       PRES   REMARKS
ADRIAN         CLEAR     61  58  90 CALM      30.09F
ALMA           CLEAR     68  62  82 S6        30.05F
ANN ARBOR      FOG       53  52  96 CALM      30.09S VSB 1/2
BAD AXE        CLEAR     65  55  71 S7        30.07S
CARO           CLEAR     60  59  96 CALM      30.06F
DETROIT CITY   CLEAR     66  55  67 CALM      30.08F
DETROIT        PTCLDY    65  60  84 CALM      30.08F
FLINT          CLEAR     65  56  72 S3        30.07F
GROSSE ILE     CLEAR     64  61  88 CALM      30.07F
HILLSDALE      CLEAR     66  60  81 SE5       30.08F
HOWELL         CLEAR     61  56  85 SE5       30.07F

CITY           SKY/WX    TMP DP  RH WIND       PRES   REMARKS
JACKSON        CLEAR     63  58  83 SE7       30.07F
LAMBERTVILLE   CLEAR     62  59  90 CALM      30.09S FOG
LANSING        CLEAR     68  58  70 S7        30.07S
LAPEER         FAIR      57  54  91 CALM      30.08S
MASON          CLEAR     61  56  85 CALM      30.07F
MONROE         CLEAR     60  60  99 CALM      30.07F FOG
MT. CLEMENS    CLEAR     62  58  87 CALM      30.06F
PONTIAC        CLEAR     66  56  70 CALM      30.08F
PORT HOPE        N/A     71  55  56 VRB6      30.04F
PORT HURON     FOG       57  57 100 CALM      30.09S VSB 1
TRI CITIES     CLEAR     71  61  70 S9        30.05F
MIDLAND        FAIR      70  61  72 S5        30.04S
TROY           CLEAR     68  55  62 CALM      30.10F
SAGINAW HB     CLEAR     66  59  77 S6        30.05F
$$
MIZ043>046-050>051-056>058-064>065-071>073-077>080-060600-
SOUTHWEST LOWER MICHIGAN

CITY           SKY/WX    TMP DP  RH WIND       PRES   REMARKS
BATTLE CREEK   CLEAR     69  60  73 S5        30.07S
BENTON HARBOR  CLEAR     62  60  93 CALM      30.02F FOG
BIG RAPIDS     CLEAR     62  59  90 CALM      30.03F
COLDWATER      CLEAR     66  59  77 SE3       30.07F
FREMONT        FAIR      65  60  84 SE3       30.01F
HOLLAND        CLEAR     64  60  87 SE6       30.02F
GRAND RAPIDS   CLEAR     65  62  90 SE7       30.04F
IONIA          FAIR      67  60  77 S8        30.04F
KALAMAZOO      CLEAR     70  60  70 SE3       30.05F
LUDINGTON      CLEAR     71  61  70 S5        29.99F
MARSHALL       CLEAR     66  59  77 CALM      30.07R
MOUNT PLEASANT CLEAR     68  62  79 SE3       30.03F
MUSKEGON       CLEAR     67  59  75 SE6       30.01F
SOUTH HAVEN    CLEAR     63  60  90 CALM      30.02F
$$
MIZ016>042-060600-
NORTHERN LOWER MICHIGAN

CITY           SKY/WX    TMP DP  RH WIND       PRES   REMARKS
ALPENA         CLEAR     65  58  78 S7        30.02F
BEAVER ISLAND  CLEAR     69  57  65 S7        29.96S
BELLAIRE       CLEAR     63  61  94 CALM      29.99F FOG
CADILLAC       CLEAR     66  60  79 S5        30.03S
CHARLEVOIX     CLEAR     66  62  85 SE3       30.00S
FRANKFORT      CLEAR     70  55  59 SE5       29.97F
GAYLORD        CLEAR     67  62  84 S7        30.02F
GRAYLING       CLEAR     62  60  94 CALM      30.04S
HARBOR SPRINGS CLEAR     63  60  91 CALM      29.98F
HOUGHTON LAKE  CLEAR     68  61  78 S7        30.04F
MANISTEE       CLEAR     61  55  82 E3        29.99F
OSCODA         CLEAR     59  56  89 CALM      30.03S
PELLSTON       CLEAR     60  58  92 CALM      29.98F
ROGERS CITY    CLEAR     68  62  82 S10       30.00F
TRAVERSE CITY  CLEAR     69  59  70 CALM      29.97F
$$
MIZ007>008-015-060600-
EASTERN UPPER MICHIGAN

CITY           SKY/WX    TMP DP  RH WIND       PRES   REMARKS
KINROSS        CLEAR     63  59  88 SE7       29.96F
MACKINAC ISLAN CLEAR     65  59  79 S6        29.97S
NEWBERRY       CLEAR     60  57  89 S12       29.94S
S. S. MARIE    FAIR      62  56  80 E5        29.96F
MUNISING         N/A     69  59  70 S9        29.89R
$$
MIZ004>006-011>014-085-060600-
CENTRAL UPPER MICHIGAN

CITY           SKY/WX    TMP DP  RH WIND       PRES   REMARKS
MANISTIQUE     CLEAR     59  56  88 S6        29.94S
ESCANABA       PTCLDY    66  61  82 S8        29.91F
MENOMINEE      CLEAR     68  61  77 SW8       29.92S
SAWYER-GWINN   CLEAR     67  61  81 S10       29.89F
$$
MIZ001>003-009>011-084-060600-
WESTERN UPPER MICHIGAN

CITY           SKY/WX    TMP DP  RH WIND       PRES   REMARKS
IRON MOUNTAIN  CLEAR     67  62  84 SE6       29.91R
HOUGHTON       CLOUDY    75  61  61 SW10      29.81F
COPPER HARBOR    N/A     73  59  61 W10G17    29.78F
IRONWOOD       CLOUDY    73  64  73 S17G23    29.80S
$$

ABBREVIATIONS USED IN REMARKS
   TC - TEMPERATURE IN CELSIUS
  WCI - WIND CHILL INDEX
   HX - HEAT INDEX
  VSB - VISIBILITY



USA.gov is the U.S. government's official web portal to all federal, state and local government web resources and services.